CFG8JC EDDF-EDDB

Flight info

Callsign CFG8JC
Flight time 0h 44m
Altitude 31000
Route TOBAK3W TOBAK N858 SWALM T201 TAMEB T278 KLF KLF1R
Aircraft A320/M-SDE3FGHIJ1LORVWXYZ/S

Departure

Time 2026-05-07 06:28
Airport Frankfurt Main Airport (EDDF)

Arrival

Time 2026-05-07 07:12
Airport Berlin Brandenburg Airport (EDDB)
Time Latitude Longitude Altitude Speed Heading
2026-05-07 06:06 50.04830 8.58837 365 ft 0 kts 339°
2026-05-07 06:09 50.04829 8.58837 365 ft 0 kts 339°
2026-05-07 06:20 50.04810 8.58848 369 ft 4 kts 339°
2026-05-07 06:20 50.04785 8.58863 371 ft 4 kts 339°
2026-05-07 06:20 50.04762 8.58876 369 ft 2 kts 339°
2026-05-07 06:20 50.04760 8.58877 369 ft 0 kts 339°
2026-05-07 06:23 50.04761 8.58875 368 ft 0 kts 328°
2026-05-07 06:23 50.04747 8.58820 369 ft 8 kts 231°
2026-05-07 06:23 50.04706 8.58776 369 ft 6 kts 191°
2026-05-07 06:23 50.04681 8.58770 370 ft 2 kts 188°
2026-05-07 06:24 50.04669 8.58767 370 ft 1 kts 188°
2026-05-07 06:24 50.04663 8.58766 370 ft 1 kts 188°
2026-05-07 06:24 50.04647 8.58762 370 ft 2 kts 189°
2026-05-07 06:24 50.04642 8.58760 370 ft 0 kts 190°
2026-05-07 06:26 50.04615 8.58748 370 ft 6 kts 205°
2026-05-07 06:27 50.04590 8.58722 371 ft 3 kts 218°
2026-05-07 06:27 50.04573 8.58701 371 ft 4 kts 218°
2026-05-07 06:27 50.04523 8.58640 371 ft 14 kts 218°
2026-05-07 06:27 50.04466 8.58492 370 ft 23 kts 247°
2026-05-07 06:28 50.04336 8.57949 367 ft 87 kts 250°
2026-05-07 06:28 50.04055 8.56797 358 ft 140 kts 249°
2026-05-07 06:28 50.03710 8.55230 551 ft 167 kts 252°
2026-05-07 06:28 50.03289 8.53496 1164 ft 173 kts 251°
2026-05-07 06:29 50.02858 8.51736 1857 ft 180 kts 253°
2026-05-07 06:29 50.02257 8.49903 2283 ft 201 kts 234°
2026-05-07 06:29 50.01156 8.48504 2878 ft 210 kts 209°
2026-05-07 06:29 49.99725 8.47893 3532 ft 217 kts 191°
2026-05-07 06:30 49.98235 8.47565 4186 ft 218 kts 190°
2026-05-07 06:30 49.96726 8.47236 4843 ft 219 kts 189°
2026-05-07 06:30 49.95231 8.46699 5368 ft 227 kts 197°
2026-05-07 06:30 49.93595 8.46600 5624 ft 254 kts 165°
2026-05-07 06:31 49.92037 8.48062 6025 ft 275 kts 128°
2026-05-07 06:31 49.91267 8.50765 6670 ft 280 kts 93°
2026-05-07 06:31 49.91583 8.53705 7399 ft 280 kts 62°
2026-05-07 06:31 49.92524 8.56361 8175 ft 283 kts 54°
2026-05-07 06:32 49.93645 8.58912 8944 ft 288 kts 51°
2026-05-07 06:32 49.94829 8.61457 9725 ft 294 kts 51°
2026-05-07 06:32 49.96038 8.64072 10283 ft 308 kts 51°
2026-05-07 06:32 49.97317 8.66905 10512 ft 331 kts 52°
2026-05-07 06:33 49.98655 8.69953 10849 ft 349 kts 53°
2026-05-07 06:33 50.00010 8.73118 11516 ft 354 kts 54°
2026-05-07 06:33 50.01362 8.76338 12278 ft 357 kts 55°
2026-05-07 06:33 50.02709 8.79577 13049 ft 358 kts 55°
2026-05-07 06:34 50.04066 8.82849 13792 ft 361 kts 56°
2026-05-07 06:34 50.05430 8.86143 14445 ft 363 kts 56°
2026-05-07 06:34 50.06805 8.89460 15064 ft 367 kts 56°
2026-05-07 06:34 50.08195 8.92804 15680 ft 370 kts 55°
2026-05-07 06:35 50.09602 8.96186 16298 ft 374 kts 56°
2026-05-07 06:35 50.11022 8.99600 16892 ft 377 kts 55°
2026-05-07 06:35 50.12456 9.03048 17491 ft 381 kts 56°
2026-05-07 06:35 50.13901 9.06521 18094 ft 384 kts 56°
2026-05-07 06:36 50.15362 9.10038 18639 ft 388 kts 56°
2026-05-07 06:36 50.16831 9.13584 19153 ft 391 kts 55°
2026-05-07 06:36 50.18315 9.17169 19678 ft 395 kts 56°
2026-05-07 06:36 50.19809 9.20791 20217 ft 398 kts 56°
2026-05-07 06:37 50.21310 9.24440 20797 ft 400 kts 56°
2026-05-07 06:37 50.22795 9.28051 21324 ft 402 kts 56°
2026-05-07 06:37 50.24312 9.31745 21845 ft 405 kts 56°
2026-05-07 06:37 50.25835 9.35459 22347 ft 408 kts 56°
2026-05-07 06:38 50.27369 9.39203 22838 ft 410 kts 56°
2026-05-07 06:38 50.28912 9.42965 23333 ft 413 kts 56°
2026-05-07 06:38 50.30466 9.46766 23759 ft 415 kts 56°
2026-05-07 06:38 50.32024 9.50580 24162 ft 417 kts 56°
2026-05-07 06:39 50.33592 9.54420 24552 ft 419 kts 56°
2026-05-07 06:39 50.35166 9.58277 24937 ft 421 kts 57°
2026-05-07 06:39 50.36740 9.62146 25307 ft 423 kts 56°
2026-05-07 06:39 50.38321 9.66041 25669 ft 424 kts 57°
2026-05-07 06:40 50.39906 9.69960 26025 ft 426 kts 56°
2026-05-07 06:40 50.41494 9.73895 26382 ft 428 kts 56°
2026-05-07 06:40 50.43088 9.77845 26750 ft 430 kts 57°
2026-05-07 06:40 50.44688 9.81815 27117 ft 431 kts 57°
2026-05-07 06:41 50.46292 9.85799 27477 ft 433 kts 57°
2026-05-07 06:41 50.47903 9.89806 27825 ft 434 kts 58°
2026-05-07 06:41 50.49512 9.93810 28156 ft 435 kts 58°
2026-05-07 06:41 50.51128 9.97842 28452 ft 437 kts 58°
2026-05-07 06:42 50.52747 10.01889 28754 ft 438 kts 58°
2026-05-07 06:42 50.54371 10.05959 29033 ft 440 kts 58°
2026-05-07 06:42 50.55976 10.09993 29314 ft 441 kts 58°
2026-05-07 06:42 50.57608 10.14100 29557 ft 443 kts 58°
2026-05-07 06:43 50.59243 10.18220 29830 ft 444 kts 58°
2026-05-07 06:43 50.60884 10.22353 30049 ft 446 kts 58°
2026-05-07 06:43 50.62527 10.26493 30329 ft 446 kts 58°
2026-05-07 06:43 50.64170 10.30641 30544 ft 447 kts 59°
2026-05-07 06:44 50.65814 10.34802 30730 ft 449 kts 59°
2026-05-07 06:44 50.67468 10.38993 30883 ft 450 kts 59°
2026-05-07 06:44 50.70747 10.47316 30909 ft 445 kts 59°
2026-05-07 06:45 50.73993 10.55602 30909 ft 444 kts 59°
2026-05-07 06:45 50.77235 10.63906 30912 ft 444 kts 59°
2026-05-07 06:46 50.80543 10.72150 30914 ft 444 kts 54°
2026-05-07 06:46 50.84758 10.79305 30909 ft 445 kts 47°
2026-05-07 06:47 50.89137 10.86198 30921 ft 444 kts 47°
2026-05-07 06:47 50.93502 10.93117 30915 ft 444 kts 47°
2026-05-07 06:48 50.97861 11.00059 30908 ft 444 kts 47°
2026-05-07 06:48 51.02192 11.06965 30904 ft 444 kts 47°
2026-05-07 06:49 51.06583 11.13966 30903 ft 444 kts 47°
2026-05-07 06:49 51.10897 11.20881 30902 ft 443 kts 48°
2026-05-07 06:50 51.15222 11.27857 30894 ft 442 kts 48°
2026-05-07 06:50 51.19537 11.34823 30896 ft 441 kts 48°
2026-05-07 06:51 51.23850 11.41783 30741 ft 439 kts 48°
2026-05-07 06:51 51.25991 11.45247 29986 ft 438 kts 48°
2026-05-07 06:51 51.28126 11.48714 29125 ft 437 kts 48°
2026-05-07 06:52 51.30246 11.52165 28404 ft 432 kts 48°
2026-05-07 06:52 51.32345 11.55584 27689 ft 430 kts 47°
2026-05-07 06:52 51.34430 11.58987 27023 ft 427 kts 47°
2026-05-07 06:52 51.36498 11.62361 26389 ft 424 kts 47°
2026-05-07 06:53 51.38555 11.65722 25760 ft 421 kts 47°
2026-05-07 06:53 51.40594 11.69064 25145 ft 418 kts 47°
2026-05-07 06:53 51.42617 11.72386 24567 ft 415 kts 47°
2026-05-07 06:53 51.44630 11.75690 23994 ft 413 kts 47°
2026-05-07 06:54 51.46637 11.78979 23399 ft 412 kts 47°
2026-05-07 06:54 51.48637 11.82261 22767 ft 411 kts 46°
2026-05-07 06:54 51.50624 11.85533 22228 ft 407 kts 47°
2026-05-07 06:54 51.52589 11.88775 21685 ft 404 kts 47°
2026-05-07 06:55 51.54537 11.91997 21189 ft 400 kts 47°
2026-05-07 06:55 51.56469 11.95201 20674 ft 397 kts 47°
2026-05-07 06:55 51.58383 11.98379 20195 ft 393 kts 46°
2026-05-07 06:55 51.60252 12.01483 19710 ft 390 kts 47°
2026-05-07 06:56 51.62134 12.04607 19243 ft 387 kts 46°
2026-05-07 06:56 51.64003 12.07711 18814 ft 384 kts 47°
2026-05-07 06:56 51.65849 12.10781 18400 ft 382 kts 46°
2026-05-07 06:56 51.67691 12.13853 17918 ft 380 kts 47°
2026-05-07 06:57 51.69524 12.16915 17357 ft 379 kts 47°
2026-05-07 06:57 51.71346 12.19960 16879 ft 375 kts 47°
2026-05-07 06:57 51.73139 12.22959 16471 ft 369 kts 47°
2026-05-07 06:57 51.74916 12.25929 16010 ft 366 kts 46°
2026-05-07 06:58 51.76673 12.28872 15542 ft 362 kts 47°
2026-05-07 06:58 51.78411 12.31791 15084 ft 359 kts 47°
2026-05-07 06:58 51.80136 12.34695 14620 ft 357 kts 46°
2026-05-07 06:58 51.81845 12.37577 14184 ft 353 kts 47°
2026-05-07 06:59 51.83532 12.40424 13741 ft 351 kts 46°
2026-05-07 06:59 51.85216 12.43261 13265 ft 348 kts 46°
2026-05-07 06:59 51.86883 12.46074 12793 ft 345 kts 46°
2026-05-07 06:59 51.88548 12.48887 12249 ft 345 kts 46°
2026-05-07 07:00 51.90196 12.51677 11781 ft 342 kts 46°
2026-05-07 07:00 51.91833 12.54455 11323 ft 339 kts 46°
2026-05-07 07:00 51.93454 12.57211 10859 ft 337 kts 45°
2026-05-07 07:00 51.95058 12.59942 10415 ft 334 kts 45°
2026-05-07 07:01 51.96655 12.62656 9967 ft 331 kts 45°
2026-05-07 07:01 51.98224 12.65326 9783 ft 320 kts 45°
2026-05-07 07:01 51.99728 12.67890 9653 ft 308 kts 46°
2026-05-07 07:01 52.01176 12.70360 9511 ft 296 kts 45°
2026-05-07 07:02 52.02569 12.72736 9364 ft 285 kts 46°
2026-05-07 07:02 52.03922 12.75045 9050 ft 280 kts 45°
2026-05-07 07:02 52.05260 12.77332 8670 ft 278 kts 45°
2026-05-07 07:02 52.06585 12.79601 8308 ft 276 kts 46°
2026-05-07 07:03 52.07903 12.81861 7905 ft 275 kts 46°
2026-05-07 07:03 52.09212 12.84109 7529 ft 273 kts 46°
2026-05-07 07:03 52.10508 12.86335 7179 ft 270 kts 46°
2026-05-07 07:03 52.11795 12.88547 6830 ft 267 kts 46°
2026-05-07 07:04 52.13065 12.90735 6459 ft 265 kts 46°
2026-05-07 07:04 52.14307 12.92879 6096 ft 262 kts 46°
2026-05-07 07:04 52.15148 12.94329 5822 ft 261 kts 46°
2026-05-07 07:04 52.16398 12.96484 5392 ft 261 kts 46°
2026-05-07 07:05 52.18039 12.99313 5002 ft 255 kts 47°
2026-05-07 07:05 52.19265 13.01429 4985 ft 259 kts 47°
2026-05-07 07:05 52.20500 13.03568 4990 ft 259 kts 47°
2026-05-07 07:05 52.21735 13.05710 4988 ft 257 kts 47°
2026-05-07 07:06 52.22545 13.07114 4980 ft 245 kts 47°
2026-05-07 07:06 52.23656 13.09039 4985 ft 228 kts 47°
2026-05-07 07:06 52.24729 13.10898 4989 ft 214 kts 47°
2026-05-07 07:06 52.25702 13.12583 4990 ft 199 kts 47°
2026-05-07 07:07 52.26618 13.14251 4936 ft 199 kts 57°
2026-05-07 07:07 52.27236 13.16325 4415 ft 209 kts 68°
2026-05-07 07:07 52.27764 13.18538 3959 ft 206 kts 68°
2026-05-07 07:07 52.28273 13.20675 3649 ft 197 kts 68°
2026-05-07 07:08 52.28761 13.22706 3377 ft 188 kts 68°
2026-05-07 07:08 52.29227 13.24641 3160 ft 178 kts 69°
2026-05-07 07:08 52.29665 13.26463 2894 ft 166 kts 69°
2026-05-07 07:08 52.30079 13.28184 2661 ft 161 kts 68°
2026-05-07 07:09 52.30477 13.29842 2453 ft 153 kts 68°
2026-05-07 07:09 52.30859 13.31435 2236 ft 147 kts 68°
2026-05-07 07:09 52.31226 13.32966 2035 ft 142 kts 67°
2026-05-07 07:09 52.31577 13.34431 1843 ft 134 kts 66°
2026-05-07 07:10 52.31914 13.35837 1662 ft 132 kts 66°
2026-05-07 07:10 52.32248 13.37233 1499 ft 132 kts 67°
2026-05-07 07:10 52.32577 13.38607 1305 ft 132 kts 66°
2026-05-07 07:10 52.32911 13.39989 1110 ft 131 kts 66°
2026-05-07 07:11 52.33247 13.41376 912 ft 130 kts 66°
2026-05-07 07:11 52.33573 13.42771 694 ft 133 kts 68°
2026-05-07 07:11 52.33907 13.44168 561 ft 130 kts 66°
2026-05-07 07:11 52.34238 13.45550 380 ft 130 kts 68°
2026-05-07 07:12 52.34566 13.46937 221 ft 130 kts 67°
2026-05-07 07:12 52.34870 13.48227 156 ft 108 kts 69°
2026-05-07 07:12 52.35082 13.49121 154 ft 60 kts 67°
2026-05-07 07:12 52.35191 13.49572 154 ft 36 kts 68°
2026-05-07 07:13 52.35275 13.49919 154 ft 30 kts 69°
2026-05-07 07:13 52.35349 13.50228 154 ft 28 kts 70°
2026-05-07 07:13 52.35427 13.50495 154 ft 24 kts 39°
2026-05-07 07:13 52.35553 13.50651 154 ft 21 kts 41°
2026-05-07 07:14 52.35661 13.50788 154 ft 19 kts 37°
2026-05-07 07:14 52.35766 13.50832 154 ft 13 kts 340°
2026-05-07 07:14 52.35855 13.50776 154 ft 14 kts 339°
2026-05-07 07:14 52.35924 13.50844 154 ft 10 kts 74°
2026-05-07 07:15 52.35950 13.50961 154 ft 11 kts 69°
2026-05-07 07:15 52.35982 13.51094 154 ft 13 kts 68°
2026-05-07 07:15 52.36016 13.51244 155 ft 14 kts 68°
2026-05-07 07:15 52.36053 13.51398 155 ft 16 kts 69°
2026-05-07 07:16 52.36077 13.51496 155 ft 6 kts 68°
2026-05-07 07:16 52.36093 13.51518 155 ft 2 kts 16°
2026-05-07 07:16 52.36103 13.51517 155 ft 1 kts 354°
2026-05-07 07:16 52.36104 13.51516 155 ft 0 kts 348°
2026-05-07 07:17 52.36113 13.51511 155 ft 4 kts 340°
2026-05-07 07:17 52.36148 13.51489 155 ft 4 kts 339°
2026-05-07 07:17 52.36157 13.51484 155 ft 0 kts 339°
2026-05-07 07:18 52.36162 13.51480 155 ft 2 kts 338°
2026-05-07 07:18 52.36167 13.51477 155 ft 0 kts 338°